Theta_e
312 312 312 313 312 312 312 312 312 312 312 313 313 313 314 315 312 312 315 316 316 322 329 329 329 331 332 334 335 333 333 333 333 332 331 330 330 329 329 329 328 326 324 323 323 323 323 322 321 321 320 319 319 318 317 317 317 317 317 316 315 315 314 313 313 312 311 311 311 311 311 311 310 311 311 311 311 311 311 311 311 311 311 311 311 311 310
313 312 312 312 312 312 312 313 313 314 313 313 313 314 316 317 316 315 317 317 316 321 326 328 330 331 331 333 334 332 332 332 331 331 330 329 328 327 327 327 326 323 322 322 323 323 322 321 320 320 319 318 318 317 317 316 316 316 315 315 315 314 313 313 312 311 311 311 310 310 311 311 311 310 311 310 310 311 310 310 310 310 310 310 310 310 309
313 313 312 313 313 312 311 312 313 314 314 314 314 315 317 317 316 317 318 317 317 322 327 329 332 332 331 332 332 332 332 331 331 330 330 329 327 326 326 325 324 323 323 324 323 321 321 320 319 319 318 318 317 316 316 315 315 315 314 314 314 313 312 312 312 311 311 311 310 310 310 310 311 310 310 310 310 310 310 310 310 309 309 310 309 309 308
313 313 313 314 314 313 312 312 313 313 314 314 314 315 316 316 315 317 317 315 319 329 334 334 333 332 331 330 331 332 331 330 331 330 329 328 327 325 324 322 322 322 323 322 321 320 320 319 318 318 317 316 316 315 315 314 314 314 313 313 313 313 312 312 311 311 310 310 310 310 310 310 310 310 310 310 310 310 309 309 309 309 309 309 309 309 308
314 314 314 314 315 314 313 313 314 315 314 315 316 315 317 318 316 317 316 315 321 331 334 334 334 332 330 330 330 330 331 331 330 329 327 327 325 323 322 321 321 321 321 320 319 319 318 318 317 316 316 315 314 314 314 313 313 313 313 313 312 312 312 312 311 310 310 310 310 310 310 310 310 309 309 309 309 309 309 309 308 308 308 308 308 308 307
313 315 315 315 315 315 316 319 318 316 315 315 316 316 316 317 317 317 318 316 321 328 329 332 333 332 330 329 328 329 330 330 329 328 327 325 323 321 320 320 320 320 320 320 319 318 318 318 317 316 315 315 314 313 313 313 313 313 313 312 312 312 311 311 311 310 310 310 310 310 310 309 309 309 309 309 309 309 308 308 308 307 307 307 307 307 306
312 314 315 316 316 317 322 326 325 322 319 317 316 316 316 316 316 317 318 317 322 326 328 329 332 331 329 328 328 329 329 328 327 327 325 323 321 320 319 320 320 320 320 319 319 318 318 317 316 316 315 314 313 313 313 313 312 312 312 312 312 311 311 311 310 310 310 310 309 309 309 309 308 308 308 308 308 308 308 307 307 307 306 306 306 306 306
313 316 316 316 319 322 326 327 325 323 321 319 317 316 316 316 316 317 317 317 323 329 330 330 331 330 328 328 329 328 328 327 326 326 324 322 321 320 320 320 320 320 319 319 318 318 317 316 316 315 314 314 313 313 313 312 312 311 311 311 311 311 311 310 310 310 309 309 309 309 308 308 308 308 308 308 307 307 307 306 306 306 306 305 305 305 305
314 315 315 317 320 324 327 326 325 322 319 318 318 316 317 318 317 317 317 317 323 330 331 330 330 328 328 329 330 328 327 326 325 323 322 322 322 321 321 320 320 320 319 319 318 317 317 316 315 314 314 313 313 313 312 312 311 311 311 311 310 310 310 310 309 309 309 308 308 308 308 308 308 307 307 307 306 306 306 306 306 306 305 305 304 304 304
313 313 315 317 317 320 324 327 327 324 320 320 319 316 317 319 318 318 318 317 324 331 331 329 329 328 328 330 330 328 327 326 324 322 322 323 323 322 321 321 320 320 319 319 318 317 316 316 315 314 314 313 313 313 312 311 310 310 310 310 309 309 309 309 309 308 308 308 307 307 307 307 307 307 307 306 306 306 306 306 306 305 304 303 303 302 303
314 314 315 316 315 319 325 327 326 325 323 322 319 316 316 317 318 319 317 317 324 330 330 328 329 329 329 330 329 327 327 326 324 323 322 322 322 322 321 321 320 319 318 318 317 317 316 315 314 314 313 313 313 311 310 310 310 310 310 309 309 308 308 308 308 307 307 307 307 306 306 306 306 306 306 306 306 306 305 305 305 305 304 304 302 302 301
314 315 315 314 316 322 326 326 324 324 325 324 320 316 315 315 316 318 317 318 325 330 329 329 328 328 329 329 328 327 327 325 323 322 322 322 322 321 321 320 319 318 318 317 316 316 315 314 314 313 313 312 311 309 309 308 308 308 308 307 307 307 307 306 306 306 306 306 306 306 306 306 305 305 306 306 306 305 305 304 304 304 304 304 304 303 301
314 315 315 313 317 323 325 323 323 325 326 324 319 317 320 322 320 319 317 320 326 329 329 328 327 328 328 328 327 326 325 324 322 322 322 322 321 320 319 319 318 318 317 316 316 315 314 313 313 312 311 309 308 307 307 307 307 306 306 305 305 305 305 305 305 305 305 305 305 305 305 305 305 305 305 305 305 305 305 305 305 304 304 304 304 303 303
313 314 314 313 317 322 324 322 323 325 325 322 319 320 325 326 324 320 319 322 327 330 329 327 326 328 328 327 326 325 325 323 321 321 321 320 319 319 318 317 317 317 316 315 314 314 313 312 312 310 309 307 306 306 305 306 306 305 305 305 305 304 304 304 304 304 305 305 305 305 305 305 305 305 305 305 305 305 305 305 304 304 304 303 303 303 303
313 314 314 314 316 321 324 323 323 325 324 322 323 325 326 325 326 324 321 324 328 330 328 327 327 328 327 326 325 323 323 322 320 319 319 319 319 318 316 316 316 316 316 315 314 313 312 311 310 309 307 307 306 305 305 305 305 305 306 306 305 305 305 305 305 304 304 305 305 305 305 305 305 305 304 304 304 304 304 304 304 304 303 303 303 303 302
313 313 314 316 318 321 323 323 323 325 324 324 326 327 326 325 328 326 323 325 328 328 328 328 327 327 326 326 324 322 321 320 319 318 319 319 318 317 316 316 315 315 315 315 314 313 312 310 309 308 307 307 306 306 306 305 305 306 306 306 306 305 305 305 305 305 305 305 305 304 304 305 305 305 304 304 304 304 304 304 303 303 303 303 303 302 302
314 316 318 321 322 323 324 325 325 326 325 324 325 326 326 326 326 326 326 328 328 327 327 327 326 326 326 324 323 321 320 319 318 318 318 318 317 316 316 315 315 315 315 314 313 312 310 309 308 307 307 306 306 306 306 305 306 306 306 306 305 305 305 305 305 305 305 304 304 304 304 304 304 304 304 303 303 303 303 303 303 303 303 303 303 302 302
317 319 321 323 324 325 325 324 324 325 324 324 324 325 326 326 325 325 326 326 326 326 325 325 325 325 324 323 322 320 318 318 317 317 317 317 316 316 315 315 315 314 313 312 311 310 309 307 307 306 306 306 306 305 305 305 305 305 305 305 305 305 305 305 304 304 304 304 304 304 304 303 303 303 303 303 303 302 302 302 302 303 303 303 303 302 302
318 319 320 322 324 326 326 323 322 323 323 323 324 325 325 325 325 325 325 325 325 325 324 323 324 324 323 322 321 319 317 316 316 315 316 316 315 315 314 314 314 313 312 310 309 308 307 307 306 305 305 305 305 304 304 304 304 305 305 305 305 304 304 304 303 303 303 303 303 303 302 302 303 302 303 303 303 303 303 302 302 302 302 302 302 302 302
319 319 321 324 324 324 324 323 322 323 323 322 323 324 324 324 324 324 324 324 324 323 323 322 323 323 323 321 319 318 317 315 314 314 314 315 314 314 313 313 312 312 311 309 308 307 307 306 305 305 304 304 304 304 304 304 304 305 304 304 304 303 303 303 303 303 302 302 303 303 302 302 301 300 301 301 301 301 301 301 302 302 302 301 301 300 301
320 320 321 322 321 321 322 323 323 323 322 323 323 323 323 323 323 323 323 323 323 322 322 322 322 322 322 320 319 317 316 314 314 313 313 313 313 313 312 312 311 311 310 308 307 307 306 305 304 304 304 303 304 304 304 304 304 304 304 304 304 303 303 303 302 302 302 302 302 302 302 300 299 298 299 299 299 298 297 297 299 301 302 301 299 298 298
319 320 321 322 322 322 321 322 322 322 322 323 323 323 323 323 322 322 323 323 322 321 321 321 322 321 320 319 318 316 315 314 314 313 313 313 313 312 312 311 310 310 309 307 307 306 305 304 304 303 303 303 303 303 303 303 304 304 304 304 303 303 302 302 302 302 302 301 300 300 300 299 297 296 295 295 295 294 294 294 296 298 299 299 299 297 296
320 321 322 322 323 324 323 322 322 321 321 322 323 322 322 322 321 321 322 322 322 321 321 321 321 321 320 319 318 316 315 315 314 314 313 313 313 312 312 311 310 309 307 307 306 305 304 304 303 303 303 303 303 303 303 303 303 303 303 303 303 303 302 302 302 302 301 300 298 298 297 297 296 295 294 293 292 292 291 291 292 294 295 296 297 297 297
321 320 320 321 323 323 322 321 320 320 320 321 321 321 321 321 320 320 321 321 321 321 320 321 321 320 319 319 318 316 315 315 314 313 313 313 313 312 311 310 309 308 307 306 305 305 304 304 303 303 303 303 303 303 302 302 303 303 303 303 303 303 302 302 302 302 301 299 298 298 297 297 296 296 295 294 293 292 291 291 291 292 292 293 293 294 295
320 319 319 320 320 320 319 319 319 319 319 320 320 320 320 320 320 319 319 320 320 320 319 320 320 320 319 318 317 316 315 314 313 313 313 313 312 311 310 309 308 307 306 306 305 305 304 304 303 303 303 303 302 302 302 302 302 302 303 303 303 302 302 302 302 301 300 299 299 299 298 298 298 297 297 296 295 294 293 293 293 293 292 292 292 292 292
318 318 318 318 318 319 319 318 318 318 318 319 319 320 319 319 319 319 319 319 319 320 320 319 319 319 318 318 317 315 314 313 313 313 312 312 311 311 310 308 308 307 306 306 305 304 304 304 304 303 303 303 302 302 302 302 303 303 303 303 302 302 301 301 301 301 300 300 300 300 300 300 299 299 298 297 296 296 296 295 295 294 294 294 294 294 293
317 317 318 319 319 318 318 318 318 318 317 318 318 318 318 318 319 319 319 319 319 319 319 318 317 317 316 316 316 315 314 313 313 313 312 312 311 310 309 308 308 307 306 305 305 304 304 304 304 303 303 303 302 302 302 303 303 303 303 302 302 301 301 301 300 300 301 301 301 301 301 301 300 300 300 299 299 299 299 299 298 297 296 296 295 294 294
316 316 317 319 319 318 317 317 317 316 317 317 317 317 317 317 318 317 317 317 317 317 317 316 315 314 313 313 314 314 314 313 314 313 312 312 311 310 309 308 307 306 306 305 304 304 303 304 303 304 304 303 303 302 302 303 303 303 303 302 301 301 301 301 301 301 301 301 301 301 301 301 301 300 300 300 300 300 300 300 299 299 298 298 297 295 295
315 315 315 316 316 316 316 316 316 316 316 316 317 316 316 316 316 315 315 315 315 315 315 315 314 312 311 311 312 312 313 313 314 313 312 311 310 309 308 307 307 306 305 305 304 304 304 304 303 303 303 303 303 302 303 303 303 303 302 301 301 301 301 301 301 301 301 301 301 300 300 300 300 300 300 300 300 300 300 300 300 300 300 300 299 297 296
314 314 314 314 314 314 315 315 315 315 315 315 315 315 315 315 315 314 313 312 312 312 312 312 312 310 310 310 310 310 309 309 309 309 309 309 308 308 307 307 306 306 305 304 304 304 304 303 303 303 303 303 303 302 302 303 302 301 301 301 301 301 302 301 301 301 301 300 300 299 299 300 300 300 300 300 300 300 299 299 299 300 300 300 300 300 299
314 314 314 314 314 314 314 314 314 314 314 314 314 314 314 314 314 313 312 311 310 310 310 311 310 310 310 309 309 308 307 306 306 306 307 307 307 307 306 306 306 305 305 304 304 304 304 304 303 303 303 303 303 302 302 302 302 301 300 300 301 301 301 300 301 301 301 300 299 299 300 300 300 300 299 300 299 299 299 299 300 300 301 301 300 300 300
313 314 314 313 313 314 313 313 313 313 313 313 314 314 314 313 313 312 311 310 310 309 309 309 309 310 309 309 307 306 305 305 305 305 305 305 305 305 305 305 305 304 304 304 304 304 304 304 303 303 302 303 303 302 302 302 302 301 301 301 301 300 300 300 300 300 299 299 299 300 301 301 300 299 299 299 300 300 300 300 300 300 300 301 301 300 299
313 313 313 313 312 312 312 312 312 311 311 312 312 312 312 311 312 311 310 310 309 309 309 309 309 309 308 307 306 306 305 305 304 304 304 304 304 304 304 304 304 303 303 304 304 304 304 304 303 303 303 302 302 302 302 302 302 301 301 300 300 299 299 299 299 298 298 299 300 300 300 300 299 299 299 300 300 300 300 300 300 300 300 301 301 301 299
313 312 312 312 312 312 312 311 311 310 310 310 311 310 310 311 311 310 310 309 309 309 309 309 309 309 308 307 306 306 306 305 304 303 303 304 304 304 304 304 304 303 304 304 304 304 304 304 303 303 302 302 302 302 302 302 302 301 300 300 299 299 299 299 299 298 299 300 300 300 300 300 300 300 300 300 300 300 300 300 300 300 300 300 301 301 299
311 311 310 310 311 311 311 310 310 310 310 309 309 309 309 310 310 309 308 309 308 308 309 309 308 308 307 306 306 306 306 305 304 303 303 304 304 304 304 304 304 304 304 304 304 304 304 304 303 303 303 303 302 302 302 302 301 300 300 299 299 299 299 299 299 299 300 300 300 300 300 300 300 301 301 300 300 300 300 299 299 299 299 300 300 300 300
310 310 309 309 310 310 310 310 310 310 309 309 308 308 308 308 308 308 308 308 308 308 309 308 308 308 307 307 306 305 305 304 303 303 302 303 304 304 304 304 304 305 304 304 304 304 304 303 303 302 303 303 302 302 302 301 301 301 300 299 298 299 299 300 300 300 300 300 300 300 300 300 300 300 300 300 300 301 300 300 300 300 300 300 300 300 300
310 309 309 309 310 311 311 310 310 309 309 309 308 308 308 307 307 307 307 307 307 307 308 307 307 307 307 306 305 304 303 303 302 302 302 303 304 304 304 304 305 305 304 304 304 304 304 303 302 302 302 302 302 302 302 301 301 301 300 299 299 299 299 299 300 300 300 301 301 300 300 300 300 300 299 299 300 300 301 301 301 300 300 300 300 299 300
310 309 309 309 310 311 310 310 309 309 309 308 308 308 307 307 307 306 306 306 306 306 306 305 305 305 305 304 304 303 302 301 301 301 302 303 304 304 305 305 304 304 303 303 303 303 303 303 302 301 302 302 302 301 301 301 301 301 300 300 300 300 299 300 301 301 301 301 301 301 300 300 300 300 300 299 300 300 300 300 300 300 300 300 300 300 300
309 309 309 310 310 310 310 309 309 309 309 308 307 307 307 307 306 306 305 305 305 305 305 304 304 304 303 303 302 302 301 301 301 302 302 303 304 304 305 304 304 303 303 303 303 303 303 302 301 301 302 302 302 301 300 300 300 301 301 301 301 301 300 301 301 301 301 301 301 301 301 300 300 300 301 301 301 301 301 300 300 300 299 299 299 300 300
308 308 309 309 309 309 309 309 309 309 309 308 307 307 307 306 306 305 304 304 304 304 304 304 304 303 303 303 302 301 301 300 301 302 303 303 304 304 304 304 303 303 303 303 303 303 303 302 301 301 302 301 301 301 300 300 300 301 301 302 302 301 301 301 301 301 301 301 301 300 300 300 300 300 300 301 301 301 301 301 300 300 300 300 300 300 300
309 308 309 309 309 309 309 309 308 308 308 308 307 307 306 306 305 304 304 304 304 304 304 304 304 304 303 302 302 301 300 300 301 302 303 303 304 304 303 303 303 303 303 303 303 302 302 301 301 301 301 301 301 300 300 299 300 301 301 302 302 302 302 301 301 302 301 301 301 301 300 300 300 300 300 300 300 300 300 301 301 301 301 301 301 301 301
309 309 308 308 308 308 309 308 308 307 307 307 307 306 306 305 305 304 304 304 304 304 304 303 303 303 303 302 301 301 301 301 302 302 303 303 303 303 303 303 303 303 302 302 302 301 301 300 301 301 301 301 301 300 299 299 300 301 302 302 302 302 302 302 301 302 302 301 301 301 301 301 301 301 301 300 300 300 300 301 301 301 301 301 301 301 301
309 308 308 308 308 308 308 308 308 307 306 306 306 306 306 305 304 304 303 303 303 304 303 303 303 303 303 302 301 301 301 302 302 303 303 303 303 303 303 304 303 302 301 301 301 300 299 300 301 301 301 300 300 299 298 298 299 300 301 302 301 301 301 301 301 301 302 302 302 302 302 302 302 301 301 301 301 301 301 301 301 301 301 301 301 301 301
309 308 308 308 308 307 307 308 308 307 306 305 305 305 305 305 304 303 303 303 303 303 303 303 303 303 303 303 302 302 302 302 303 303 303 303 303 303 303 303 302 301 300 300 300 299 299 300 301 301 300 300 300 298 298 298 299 300 301 301 301 301 301 301 301 302 302 302 302 302 302 302 302 302 302 301 301 301 301 301 301 301 301 301 301 301 301
309 309 308 308 307 307 307 307 307 307 306 305 305 305 305 305 304 303 303 303 303 303 303 303 304 304 304 304 304 304 303 303 303 303 304 303 303 303 303 302 301 301 300 300 299 299 299 301 301 300 300 300 300 299 298 299 300 300 301 301 301 301 301 301 301 302 302 302 302 302 302 302 302 302 302 301 301 301 301 301 301 301 301 301 301 301 301
308 308 308 308 307 307 307 307 306 306 305 305 305 305 305 304 304 303 304 303 303 303 303 304 304 304 305 306 305 305 304 303 303 303 303 303 302 302 302 302 301 300 300 299 299 299 300 300 300 300 300 299 299 299 299 300 300 301 301 301 301 301 301 301 301 301 301 301 301 301 301 301 302 302 302 302 301 301 301 301 300 300 300 300 300 300 300
308 308 308 308 307 307 306 306 306 306 305 305 305 304 304 304 303 303 304 304 304 303 303 303 304 304 305 305 305 305 304 304 304 303 302 302 301 301 301 300 299 299 299 299 299 300 300 300 299 299 299 299 299 299 299 300 301 301 301 301 301 301 301 301 301 301 300 300 300 300 300 300 301 301 301 301 301 301 300 300 300 300 300 300 300 299 299
308 307 307 307 307 306 306 306 306 306 306 305 304 304 304 304 303 303 303 303 304 304 304 304 303 304 304 304 304 304 304 304 304 303 303 302 302 302 301 300 298 298 298 299 300 300 300 300 299 299 299 298 298 299 300 300 301 301 301 301 301 301 301 301 300 300 300 299 299 299 299 299 300 300 300 300 300 300 300 300 300 300 300 300 300 299 299
307 307 307 307 307 306 306 306 306 306 306 305 304 303 303 303 303 303 303 303 304 305 305 305 304 303 303 303 303 303 303 303 303 303 302 302 302 302 301 300 298 297 298 299 300 300 300 299 299 299 299 298 298 299 300 300 301 301 301 301 301 300 300 300 300 300 300 300 299 299 299 300 300 300 300 299 300 300 300 300 300 300 299 299 299 299 299
307 307 307 307 307 306 306 306 306 306 306 305 304 303 303 303 303 303 303 302 303 304 305 305 304 304 303 303 303 302 302 302 302 302 301 302 302 302 301 300 299 298 298 299 300 300 300 299 299 299 299 299 299 299 300 300 300 300 300 300 299 299 299 299 300 300 300 300 300 300 300 300 300 299 299 299 299 299 299 299 299 299 299 299 299 299 299
307 307 307 307 307 306 306 306 306 306 306 305 304 303 303 303 302 302 302 302 302 303 304 304 303 303 302 302 302 302 301 302 302 302 302 302 302 302 302 301 299 298 298 299 300 300 300 299 299 299 299 299 299 300 300 300 300 300 300 299 299 299 299 299 299 299 299 299 299 299 299 299 299 299 299 299 300 300 300 299 299 299 299 299 299 299 299
307 307 306 306 306 306 306 306 306 306 306 305 304 304 304 303 302 301 301 301 302 303 303 303 303 302 302 301 301 301 301 301 301 302 302 302 302 302 302 301 300 299 299 299 300 300 300 300 299 299 299 299 299 300 299 299 300 300 300 300 300 299 299 299 300 300 300 300 299 299 299 299 299 299 299 299 300 300 300 299 299 300 300 300 299 299 299
Wind_Speed
15 15 15 16 17 17 17 17 17 19 20 20 17 13 13 12 9 8 9 13 13 10 9 11 11 11 12 13 12 10 12 14 14 13 14 14 13 13 14 15 15 16 17 19 20 21 20 20 21 21 19 18 17 16 17 17 16 16 16 15 15 13 12 12 11 11 11 11 12 11 11 11 11 11 11 12 11 11 11 11 11 11 11 11 11 12 12
14 16 16 16 16 16 17 17 17 17 17 18 17 15 15 14 12 10 8 10 11 10 10 10 10 11 11 12 12 12 14 16 16 16 16 15 15 15 14 13 14 17 18 19 22 23 22 22 21 20 18 17 16 16 17 17 16 16 16 15 15 13 12 12 12 12 12 12 12 12 11 11 11 11 11 11 11 11 11 11 11 11 11 11 11 12 13
11 14 13 12 13 15 16 17 18 17 16 17 17 15 14 14 13 12 10 8 7 6 9 11 11 11 11 12 13 13 14 16 17 17 17 16 16 17 16 15 14 15 15 17 21 23 22 22 21 19 18 17 15 15 16 17 17 17 16 15 14 13 13 12 12 12 12 12 12 12 12 12 11 11 11 10 11 11 11 11 11 11 11 11 11 12 13
9 11 10 11 13 15 16 17 19 19 17 16 15 13 13 13 14 13 10 8 6 6 10 12 12 12 13 14 14 12 13 15 17 18 17 17 17 17 16 16 14 12 13 15 18 21 21 22 20 19 18 17 16 16 16 17 17 17 16 15 14 14 13 13 13 12 12 12 12 12 12 11 11 11 10 10 11 11 11 11 11 11 11 11 11 11 12
9 11 12 12 10 12 13 13 16 19 18 16 14 14 15 15 14 11 9 8 6 10 11 11 12 14 13 14 13 12 13 14 16 18 18 17 18 18 18 17 15 14 16 18 20 21 20 20 20 19 18 17 17 17 17 18 18 17 17 16 15 14 13 13 13 12 12 12 12 12 11 11 11 10 10 10 10 10 10 11 11 11 12 11 11 11 11
9 12 13 10 9 10 6 4 8 13 15 17 17 15 15 16 13 10 9 9 7 11 13 12 12 13 13 13 13 13 13 13 14 17 19 18 18 19 18 18 17 18 19 19 21 21 19 19 20 19 18 18 18 18 18 18 18 17 16 16 15 14 13 13 12 12 12 12 12 12 11 11 11 10 10 10 10 10 10 10 11 11 11 11 11 10 11
7 9 10 9 9 7 2 3 1 3 7 13 16 16 17 17 16 14 13 10 7 7 9 10 11 12 12 12 12 13 14 14 15 17 18 18 18 17 18 18 18 19 21 20 20 20 19 19 19 19 18 18 19 19 18 18 17 17 16 16 15 15 14 13 12 12 12 12 12 12 11 11 11 11 11 10 10 10 10 10 11 11 11 11 11 11 11
6 7 9 8 5 4 3 2 1 1 4 9 12 15 17 18 17 16 14 11 8 6 6 9 10 11 12 11 10 13 15 15 16 17 17 18 16 15 17 18 19 21 24 24 23 21 20 19 18 18 18 18 18 19 18 17 17 16 16 16 15 14 13 13 13 13 12 13 13 12 12 12 11 11 11 11 11 11 11 11 11 11 11 11 12 11 12
6 7 9 6 4 5 4 2 2 5 8 9 9 9 11 13 13 14 14 13 11 9 8 10 12 11 11 9 9 12 15 16 18 19 19 19 17 18 20 21 21 24 26 25 24 22 21 19 18 18 18 18 18 18 17 16 16 16 16 16 15 14 13 14 13 13 13 13 13 13 12 12 11 11 11 11 11 10 10 11 10 11 12 12 12 12 12
5 6 8 7 6 6 4 3 4 5 7 9 11 9 7 10 13 13 14 14 13 12 11 13 15 12 10 8 9 12 15 17 18 19 19 21 22 22 23 25 25 25 25 25 24 22 20 19 18 18 19 19 18 17 16 16 16 16 16 16 15 14 14 14 14 14 13 14 13 13 13 12 12 12 11 11 11 10 9 10 10 11 12 13 13 13 13
5 5 7 8 5 2 3 4 6 6 5 7 10 9 8 13 17 16 16 14 13 14 15 16 14 11 8 7 9 13 16 18 18 19 19 22 23 24 26 28 28 27 26 25 23 21 20 19 19 18 19 19 18 16 16 16 16 16 16 16 15 15 15 15 14 14 13 13 13 13 13 12 12 12 11 10 10 9 9 10 10 11 11 11 12 13 14
7 7 7 5 2 3 5 5 5 6 6 7 10 10 7 11 16 16 15 14 14 15 16 15 13 10 6 6 11 16 16 16 17 19 21 21 23 24 27 29 29 28 27 25 22 21 20 19 19 19 18 18 17 16 15 16 17 16 16 16 16 16 16 16 15 14 13 14 14 13 13 13 12 11 10 10 9 9 9 10 10 10 10 10 11 11 13
8 8 7 4 2 4 6 6 6 6 6 7 10 7 1 2 10 14 15 14 16 17 15 13 10 6 1 8 17 19 16 16 17 19 24 26 26 26 27 28 28 28 26 24 22 21 20 19 19 19 18 18 18 16 16 17 17 17 17 17 18 17 17 16 16 15 14 14 14 13 13 12 11 10 10 10 10 10 10 10 10 10 10 10 10 10 11
7 6 7 6 3 3 4 6 7 7 7 6 5 2 4 5 5 13 15 13 14 16 14 10 8 4 7 15 21 21 19 19 18 19 24 27 27 27 28 27 27 27 26 24 22 21 20 20 19 19 19 19 19 18 18 18 18 18 18 18 18 18 17 17 17 16 15 14 13 12 12 11 11 10 10 10 11 11 11 10 10 10 9 9 9 10 10
6 6 7 7 3 5 8 8 6 4 4 1 2 1 2 4 3 9 12 12 12 14 12 9 7 8 13 19 21 20 21 21 20 20 22 24 26 27 28 27 27 26 25 24 22 21 21 20 19 19 20 20 19 19 19 19 19 19 18 18 18 17 17 17 17 16 15 14 12 11 11 11 11 11 11 11 11 10 10 10 10 9 9 9 9 10 10
7 6 6 4 1 6 9 7 3 3 3 3 4 2 2 2 2 5 7 10 12 12 11 10 9 12 16 19 20 20 21 21 20 20 21 24 27 29 28 28 28 27 25 24 23 22 21 19 19 19 20 20 20 20 20 19 19 18 18 17 18 18 18 17 16 15 15 13 12 11 11 11 11 11 10 10 9 9 9 9 9 8 8 8 9 10 10
4 2 3 3 4 6 6 2 3 5 6 5 4 4 4 2 1 2 4 8 11 11 9 9 11 14 17 19 20 20 20 21 21 21 23 26 28 29 29 29 27 26 25 25 23 22 21 20 19 19 19 21 22 21 19 19 19 19 19 18 19 18 18 17 16 15 14 13 12 11 11 10 11 10 10 10 9 9 8 8 8 8 8 9 9 9 10
2 4 5 5 5 6 5 4 5 4 3 2 3 4 4 2 1 2 3 6 9 11 11 10 11 14 18 19 19 19 20 21 22 23 24 26 28 29 28 28 27 26 25 25 23 23 21 20 19 19 20 21 22 20 19 19 19 19 19 19 19 18 17 16 15 15 14 13 12 11 10 10 10 9 9 9 9 9 9 9 8 8 8 8 9 9 10
3 2 3 5 6 6 5 4 4 4 3 2 1 3 4 2 2 2 3 6 9 10 10 10 11 15 19 20 19 18 19 21 22 22 22 24 27 28 27 27 27 26 25 24 24 24 22 20 20 20 20 21 21 20 20 19 19 19 20 19 19 18 17 16 15 14 14 13 12 11 11 10 10 9 9 9 9 9 8 8 8 9 9 9 9 9 8
2 2 3 5 5 4 3 2 2 3 4 3 2 2 2 2 3 3 3 6 9 9 9 11 13 15 18 20 19 18 18 20 21 20 21 24 26 27 27 28 27 25 24 24 24 23 22 20 20 21 20 20 21 20 20 20 20 19 19 19 18 18 17 15 15 14 13 12 11 11 11 12 12 11 10 10 11 12 12 11 9 9 10 10 10 9 8
2 3 3 2 3 4 4 3 2 4 4 4 3 3 1 1 4 4 3 6 10 10 10 12 13 15 17 18 19 20 20 19 19 19 22 25 26 26 27 26 25 24 24 25 24 23 22 21 21 21 21 21 21 20 20 20 20 19 19 18 18 17 16 15 15 14 12 11 11 11 12 14 15 15 14 13 14 14 14 13 11 10 11 11 11 10 9
3 3 1 2 1 2 5 6 4 3 3 4 4 4 2 2 4 4 5 8 10 10 11 12 12 15 16 17 19 20 19 19 21 23 26 26 26 27 27 25 25 25 25 25 25 24 22 22 21 21 21 21 21 20 20 20 20 19 19 18 17 16 15 15 14 13 13 13 13 13 14 15 16 17 17 16 16 16 15 14 12 11 12 11 10 10 11
2 3 2 2 3 3 4 5 5 4 4 4 4 4 3 3 4 4 6 8 9 10 11 11 13 15 16 17 19 19 18 21 25 27 27 27 27 27 27 25 25 26 25 25 25 24 23 22 22 21 21 21 20 20 20 19 19 19 18 17 16 15 15 14 13 13 14 14 14 15 15 16 16 16 17 17 17 17 16 15 14 12 11 10 9 9 10
4 3 3 2 2 4 4 4 4 4 4 4 4 3 3 4 5 5 6 9 10 10 11 12 13 16 18 18 20 20 20 24 29 29 28 28 28 27 27 27 27 27 26 25 25 24 23 22 22 22 21 21 20 20 20 19 19 18 16 16 15 15 15 14 13 13 14 15 15 16 16 15 15 15 15 16 16 15 15 15 14 13 12 10 9 9 8
2 2 3 3 4 5 5 4 4 3 3 3 3 3 3 4 5 6 7 7 8 10 11 10 12 18 20 19 21 22 22 25 29 30 28 28 28 27 27 28 28 27 26 25 24 24 23 23 22 22 21 20 20 20 19 19 18 16 15 15 15 15 15 14 13 14 15 15 15 15 15 15 14 14 14 14 14 14 14 14 14 14 13 12 11 10 9
1 3 3 4 5 5 5 5 3 2 3 4 3 4 4 5 4 7 9 8 8 10 11 10 12 18 22 23 23 23 23 26 29 30 29 27 26 26 28 28 28 27 26 25 24 24 24 24 23 22 21 20 20 19 19 18 16 15 15 14 15 15 15 14 14 15 14 14 14 13 13 13 13 12 13 13 13 13 12 12 12 12 12 12 12 12 10
2 2 2 3 4 3 3 4 4 4 4 4 4 5 5 5 4 7 10 10 10 9 11 14 15 13 14 20 24 23 24 28 29 27 27 28 27 27 28 29 28 27 26 25 24 25 25 24 22 21 20 20 19 19 18 17 16 15 15 15 15 15 15 14 14 14 14 13 12 12 11 11 11 11 11 11 10 10 9 9 9 9 9 9 10 11 11
2 2 3 3 4 4 4 5 6 6 5 5 5 6 7 7 8 8 9 11 11 10 11 17 19 13 10 13 18 19 21 25 26 26 26 26 26 27 29 29 28 27 25 24 25 25 24 22 21 20 20 19 19 19 18 17 16 15 15 15 16 16 14 14 14 14 13 13 11 11 11 11 10 10 9 8 8 7 7 7 7 7 7 7 7 8 8
2 2 3 5 6 6 4 4 6 6 4 5 7 7 7 9 9 9 9 10 11 11 12 15 18 16 13 13 15 14 12 11 15 21 26 26 26 28 29 28 28 26 25 25 25 24 22 21 21 20 19 18 18 18 18 17 15 15 15 16 17 16 14 13 14 13 13 12 12 12 11 11 10 10 9 8 7 7 6 6 5 4 5 6 7 6 6
2 2 3 4 5 5 4 4 5 6 4 5 7 6 8 9 9 9 10 10 9 10 12 13 14 15 15 16 18 18 16 14 15 19 23 24 25 27 28 28 27 24 23 24 23 22 21 21 20 20 19 18 17 17 17 16 15 15 16 16 16 15 14 14 14 13 12 12 13 13 11 10 9 9 8 7 7 6 6 5 3 3 3 4 4 5 6
4 4 4 3 3 4 3 3 4 4 4 5 6 7 8 9 8 9 10 9 8 10 12 13 14 14 15 17 21 23 24 23 22 22 22 22 23 23 24 25 24 22 22 23 22 21 21 20 19 19 19 18 17 17 17 16 15 16 16 16 15 15 16 15 13 12 12 13 13 11 10 9 9 8 8 7 6 6 5 5 4 2 1 2 2 1 1
4 3 2 1 1 1 3 2 2 4 4 4 6 7 6 7 8 10 9 8 9 11 11 13 15 15 16 19 23 25 27 28 26 22 21 22 22 21 20 19 20 21 22 22 21 21 20 19 19 19 18 17 17 17 16 16 15 16 16 15 16 17 17 14 12 12 13 14 12 10 8 9 9 8 7 6 6 5 4 4 3 2 1 2 2 1 2
2 1 0 2 1 1 2 2 2 3 4 4 4 5 5 6 7 8 9 9 10 11 11 13 17 19 20 21 23 24 26 28 25 22 21 23 22 20 18 18 19 21 21 20 19 19 19 18 19 18 18 18 17 17 16 15 15 15 15 16 17 17 15 13 12 14 14 12 10 9 8 8 9 9 7 6 5 4 4 3 3 3 3 3 3 2 5
4 4 4 3 2 2 1 2 2 3 4 4 3 3 5 6 6 7 10 11 11 10 12 16 20 22 21 20 21 22 22 20 17 17 20 22 22 22 21 19 19 19 19 18 18 17 17 18 19 18 18 18 17 16 16 15 14 15 16 17 18 17 15 13 14 14 12 10 10 9 8 8 8 8 6 5 5 4 3 3 3 3 3 4 4 3 6
3 4 3 2 4 3 1 3 3 4 5 5 5 4 5 6 7 8 10 11 11 12 16 19 21 22 21 20 20 20 19 17 17 19 22 22 21 22 22 19 17 18 18 17 17 16 17 19 20 19 18 18 17 16 16 15 14 15 16 18 18 16 14 13 14 13 11 10 10 9 8 8 7 6 5 5 6 5 4 5 5 4 4 5 5 4 6
2 2 2 2 2 2 3 3 3 4 4 5 5 5 5 7 9 10 11 12 13 15 18 20 21 22 21 20 19 20 21 22 23 23 24 24 23 22 21 18 18 19 19 18 17 17 17 19 21 20 18 17 17 16 16 15 15 16 16 17 17 15 14 13 12 11 10 10 9 9 9 7 6 5 5 6 6 5 6 7 6 5 6 6 6 5 5
2 2 3 3 3 3 4 4 4 5 5 5 5 6 7 9 11 12 12 13 13 14 15 17 19 20 19 19 19 20 22 25 26 25 25 25 23 20 18 18 18 18 18 18 18 17 19 21 23 21 18 17 17 17 17 15 15 16 16 16 16 15 14 13 11 11 10 10 9 9 9 8 7 7 7 7 7 7 7 6 6 6 7 7 7 6 7
3 4 4 4 4 4 5 5 5 6 6 6 6 7 8 10 12 12 13 13 14 14 13 13 16 18 19 19 19 19 20 24 27 27 25 24 21 17 16 17 19 18 17 18 17 18 21 25 25 21 18 16 17 18 17 15 15 16 16 15 15 15 14 13 12 11 10 10 9 9 9 8 9 9 9 9 9 8 8 7 6 6 6 7 7 8 8
3 5 5 5 5 5 6 6 5 6 7 7 7 8 10 11 12 13 13 14 15 17 17 17 18 19 18 18 18 19 20 23 26 25 23 22 20 16 15 17 19 18 17 17 17 18 23 27 26 21 17 16 18 19 18 16 15 16 15 14 13 14 13 12 11 10 10 9 9 9 9 9 9 9 9 9 9 8 8 8 7 7 7 8 9 9 8
3 4 5 5 5 5 6 6 5 6 7 7 8 9 11 12 13 14 14 14 14 16 19 20 19 17 16 16 16 18 21 24 24 23 21 20 19 16 16 18 18 17 17 18 18 19 25 27 23 19 17 17 18 19 20 18 16 15 13 12 12 12 12 11 10 10 10 9 9 9 9 9 9 8 8 8 8 8 8 8 9 9 9 10 9 9 9
4 4 4 5 5 5 6 6 6 6 6 7 8 9 10 11 12 14 15 15 14 15 17 19 18 16 16 17 18 20 23 25 23 21 19 19 18 17 16 16 17 17 19 20 19 20 24 25 21 18 18 18 18 21 23 20 15 11 12 12 12 11 10 10 10 9 9 10 10 9 10 9 9 9 9 9 9 9 9 9 9 9 9 10 9 9 9
5 4 5 5 5 5 6 6 7 7 7 7 8 9 10 10 12 13 15 16 16 16 17 19 19 18 19 20 21 22 23 22 20 18 17 16 17 17 16 16 17 19 21 20 18 18 22 22 20 18 18 18 19 24 26 22 14 9 9 11 11 10 9 10 9 9 9 9 9 9 9 10 9 10 10 10 10 10 10 10 10 10 10 10 10 10 10
6 5 5 4 4 5 6 6 6 7 8 8 8 10 10 10 11 13 14 15 15 16 17 18 19 19 19 20 21 21 19 19 19 19 17 18 19 20 18 15 17 19 20 18 17 18 21 21 19 18 18 18 21 26 27 22 15 10 9 9 10 9 9 9 9 9 9 9 9 9 9 9 9 10 10 10 10 10 10 10 11 11 11 11 11 11 11
7 6 5 4 4 5 5 5 6 8 9 9 9 9 10 10 11 13 13 14 14 15 17 18 19 19 19 20 20 19 19 20 20 19 19 19 20 20 17 15 18 21 20 18 17 19 20 19 18 19 19 19 21 24 23 20 16 13 11 9 9 9 9 9 9 9 9 9 9 9 9 9 9 10 10 10 10 11 11 11 11 11 11 11 11 11 11
6 6 5 5 5 4 4 6 7 8 9 10 10 9 9 10 11 12 13 14 14 15 16 19 19 19 20 21 20 20 20 21 21 21 21 19 17 16 16 19 21 22 21 19 18 19 19 17 18 21 20 19 21 23 20 17 15 14 12 10 10 10 9 9 9 9 9 9 9 9 9 9 10 10 11 11 11 12 12 12 12 12 12 12 12 12 12
6 6 6 6 5 3 4 7 10 11 10 10 9 8 9 10 12 12 13 14 15 15 16 17 17 18 19 21 22 22 23 22 22 22 20 16 14 15 18 20 20 22 22 19 18 19 19 17 19 21 20 18 20 21 18 14 12 12 12 11 10 10 10 9 9 9 10 10 11 11 11 11 10 10 11 11 11 11 11 11 12 12 13 13 14 14 14
6 6 7 7 6 5 6 8 11 11 9 8 7 7 8 10 11 10 10 12 14 16 16 15 14 16 18 19 20 22 24 24 23 22 19 15 13 17 21 21 21 23 24 19 15 16 19 18 17 17 18 17 17 16 14 13 12 11 11 10 10 10 10 10 10 10 10 11 11 11 12 12 12 12 12 12 11 12 12 12 13 13 14 14 14 15 15
6 6 7 8 8 7 6 7 8 8 8 7 7 8 9 10 11 10 8 8 11 15 17 14 12 13 15 16 17 20 22 22 20 20 20 18 17 18 19 21 22 24 24 18 10 10 16 21 20 17 17 18 17 15 14 13 12 11 11 10 10 11 11 11 11 11 11 11 11 11 12 13 13 13 14 14 13 14 14 14 14 14 14 14 15 15 15
7 7 8 8 9 8 7 6 6 6 8 9 9 9 9 9 10 10 9 7 7 12 15 15 13 14 15 15 15 17 19 19 17 17 19 18 15 14 16 21 23 25 24 19 10 8 14 22 22 19 18 19 18 16 15 14 13 12 11 11 11 11 11 11 11 10 10 10 10 10 10 11 11 11 12 12 12 12 13 13 13 14 14 15 15 16 17
8 8 8 8 8 8 8 7 5 6 8 9 9 10 11 10 8 9 11 10 8 11 14 15 15 15 14 13 14 16 17 17 17 17 18 17 15 13 16 20 23 25 24 19 14 13 16 18 18 18 19 18 17 15 15 14 13 12 11 11 11 11 11 10 10 10 10 10 10 10 10 11 11 11 11 12 12 13 13 14 15 16 16 17 17 18 19
8 7 7 8 7 7 7 6 5 6 7 9 9 10 11 10 8 9 11 11 11 11 13 13 13 13 12 13 15 17 17 15 14 16 17 16 15 14 15 17 22 26 25 20 16 15 16 15 15 16 18 17 16 15 15 14 12 11 11 11 11 11 11 11 10 11 11 12 12 12 13 13 13 13 13 13 14 14 15 15 15 16 17 17 17 17 18
7 7 7 7 8 8 8 7 6 7 8 9 9 10 11 10 9 9 10 10 9 10 11 12 11 11 12 14 15 17 17 15 14 15 16 15 14 14 14 16 20 23 23 20 17 15 15 15 16 17 17 17 16 15 14 13 12 12 11 11 11 11 11 11 11 11 11 12 12 13 14 14 14 14 14 14 15 15 16 16 17 17 17 17 17 17 18
Wind_Direction
210 197 190 197 199 202 206 206 207 206 204 209 214 216 215 214 218 222 212 208 199 171 165 173 166 167 169 150 138 140 141 140 139 135 136 142 144 145 146 143 139 136 134 134 135 135 134 131 131 133 136 139 138 131 126 122 120 122 126 128 129 127 124 120 117 113 107 103 101 98 95 92 88 85 82 79 79 78 75 73 69 67 65 61 57 51 42
213 207 201 200 197 199 205 206 206 208 207 207 208 215 219 212 214 233 237 222 208 174 158 162 150 151 156 142 139 150 150 146 147 149 152 150 147 145 142 137 136 136 136 135 134 135 134 132 133 135 138 140 138 131 124 122 123 126 129 134 135 130 125 123 120 113 107 103 101 98 96 94 91 88 84 81 80 78 76 73 70 68 66 62 59 52 44
217 216 200 189 200 208 206 204 206 206 207 208 204 206 216 212 211 228 238 226 210 165 142 141 132 135 145 145 150 157 154 154 156 156 154 150 147 144 138 131 128 131 133 130 131 135 137 137 138 139 141 141 137 129 123 122 126 129 133 140 139 131 127 125 120 112 108 105 101 99 99 96 93 90 86 83 82 78 76 73 70 68 66 63 59 53 46
208 208 197 192 204 214 212 208 205 203 205 209 204 199 204 206 208 214 215 206 186 131 124 131 135 145 152 154 159 160 158 163 161 155 152 148 145 139 129 122 119 121 125 126 132 138 139 138 139 139 139 138 133 129 125 126 130 132 134 136 135 131 130 126 119 113 110 107 104 102 100 97 94 91 88 86 83 80 77 74 72 68 66 64 60 55 49
196 192 204 208 205 212 217 214 207 204 204 205 204 203 200 202 209 208 202 207 177 140 144 152 153 157 158 158 163 165 164 165 158 153 151 144 139 134 128 128 130 131 130 131 136 140 139 139 140 138 137 134 131 130 129 130 134 135 134 133 131 130 128 123 117 113 112 109 106 105 102 99 97 94 92 90 86 83 81 77 74 69 67 65 62 57 51
195 185 197 208 208 210 210 211 217 213 209 205 204 205 200 200 208 207 209 224 192 154 166 176 165 160 159 157 163 169 168 161 155 155 150 139 134 133 135 140 142 137 133 132 136 140 142 142 138 135 133 131 130 131 132 134 136 135 133 130 127 125 124 122 118 114 113 110 107 107 104 101 99 96 95 93 89 87 85 80 76 72 69 66 64 59 53
191 171 187 205 212 208 133 65 263 233 225 217 209 207 205 200 204 210 212 214 194 167 173 171 157 151 148 151 162 165 162 160 159 156 146 139 137 138 142 147 144 138 134 133 138 142 140 136 133 132 131 130 131 133 134 136 136 134 131 126 121 121 122 122 119 116 114 112 109 109 106 103 101 98 96 95 91 89 86 81 78 75 72 69 68 65 57
169 160 197 209 187 148 116 87 80 120 213 221 213 211 208 199 198 205 210 204 184 163 143 133 137 142 142 147 156 156 158 162 161 154 145 144 144 143 145 146 144 142 141 139 142 142 138 133 133 133 133 132 133 134 135 137 133 130 128 121 117 119 121 121 120 118 117 115 112 111 108 106 103 100 99 97 93 91 87 83 80 78 75 73 71 68 61
186 182 201 196 156 162 170 166 185 194 203 204 208 215 207 198 198 200 206 203 178 150 132 128 131 136 139 145 153 158 163 162 155 150 151 151 146 143 147 147 145 145 143 141 141 141 139 137 136 137 137 136 135 135 135 134 130 126 122 118 117 120 118 117 118 119 119 117 114 113 110 108 106 104 104 100 95 94 91 89 87 83 79 76 71 67 61
218 210 202 202 207 201 180 145 161 198 218 203 201 216 215 205 207 206 207 202 173 148 142 137 135 140 150 159 163 165 166 161 153 151 153 151 147 146 149 147 143 142 141 141 142 141 138 137 138 140 140 139 137 137 135 132 128 124 120 117 118 119 116 115 117 118 118 117 115 113 111 110 110 107 105 101 98 97 96 95 95 91 85 81 74 68 62
220 226 211 210 218 188 138 139 146 168 204 189 185 210 221 202 201 207 210 200 171 155 153 146 145 159 173 172 170 170 168 162 154 149 148 148 149 151 151 147 144 143 142 143 143 140 137 139 141 143 144 143 139 135 130 126 121 117 115 115 116 116 115 115 116 116 115 114 114 115 113 112 111 109 108 107 106 106 103 98 96 94 91 87 81 74 66
209 219 220 212 200 116 130 136 138 158 176 173 179 202 216 191 188 198 207 195 172 163 160 154 161 185 194 169 165 166 160 148 140 142 148 150 149 145 144 144 143 143 144 144 142 140 140 142 141 143 143 138 131 126 119 114 110 109 110 111 111 112 113 113 113 112 112 114 115 115 113 111 110 110 109 109 108 105 102 99 95 94 92 90 87 79 71
207 215 227 215 139 108 129 136 131 143 160 177 189 201 271 198 185 190 199 192 174 169 168 165 175 201 168 133 151 157 148 134 135 143 146 146 144 139 137 142 146 146 144 142 141 142 143 143 143 144 140 131 126 124 118 112 111 112 111 111 112 114 116 117 115 113 112 114 114 114 113 113 112 112 110 108 106 101 99 98 96 96 94 90 87 82 75
212 212 228 225 175 133 158 152 135 149 171 179 185 211 338 324 219 191 192 187 172 168 171 174 175 148 109 128 144 151 144 136 139 143 142 142 143 140 138 143 149 149 144 141 142 144 145 145 145 144 139 132 128 126 121 118 120 121 120 120 121 123 122 120 117 116 114 114 114 114 116 116 113 110 107 106 104 102 101 101 98 96 93 88 85 81 75
215 210 218 230 212 153 167 162 147 173 195 143 49 353 333 328 260 199 186 177 170 169 170 172 163 137 131 136 139 143 145 141 141 143 143 144 144 142 140 144 148 150 146 143 143 145 146 146 145 141 136 131 128 127 125 125 128 128 128 129 128 126 124 119 117 117 117 117 117 117 118 117 114 112 110 108 106 106 107 106 102 97 93 88 83 79 72
216 217 206 214 105 134 163 171 142 129 122 67 21 3 49 40 254 211 177 163 167 172 170 164 149 136 140 142 138 142 147 146 145 147 146 145 147 147 148 148 147 146 146 145 145 146 146 144 142 139 135 131 128 128 128 130 133 132 131 131 127 124 121 120 120 121 121 121 119 116 115 114 111 109 108 107 107 107 107 105 102 96 91 86 80 74 71
204 155 119 103 96 121 142 119 67 99 110 86 40 32 48 62 164 191 171 161 163 167 164 154 140 135 141 147 147 148 149 146 146 148 147 148 150 150 149 148 144 143 145 146 145 144 143 141 138 136 134 131 129 129 131 134 135 132 130 129 126 124 123 124 125 125 123 120 117 115 114 111 108 108 108 106 103 100 97 93 92 90 85 81 76 70 66
137 113 108 111 117 125 123 93 73 90 120 108 55 50 61 68 116 165 176 170 169 169 165 158 150 144 146 150 149 147 147 146 146 146 148 152 152 149 146 145 143 144 145 144 141 139 137 136 135 134 134 133 131 131 134 136 135 133 131 128 126 126 127 128 128 126 122 118 115 112 109 106 104 103 102 102 101 99 96 91 85 82 78 75 74 71 66
197 180 129 111 117 131 137 122 105 105 117 114 39 47 68 89 139 167 183 180 177 174 166 159 159 153 148 150 151 147 147 150 150 149 150 151 150 145 142 141 142 143 144 140 137 136 134 134 134 135 135 134 133 133 135 136 135 134 131 128 128 129 129 128 126 123 120 118 116 112 107 103 101 97 93 90 84 76 72 76 80 79 74 67 64 65 66
202 186 136 106 110 125 140 140 118 107 109 105 75 51 55 97 126 141 196 177 159 160 163 160 162 160 152 150 154 154 152 153 153 150 145 144 144 142 139 140 142 143 142 140 137 135 134 135 137 137 137 136 135 135 136 136 135 133 131 130 131 130 128 127 124 122 122 122 118 109 98 86 79 77 80 81 73 60 51 50 56 65 70 65 57 53 55
161 164 153 124 137 154 170 174 101 64 81 97 89 77 74 143 122 129 175 151 137 151 171 169 165 162 156 155 159 160 157 154 151 145 140 139 139 138 139 141 143 143 141 139 137 135 135 137 139 138 138 138 137 137 138 138 136 135 134 134 133 130 128 127 125 125 125 121 115 110 99 86 75 71 76 84 82 73 66 61 57 62 70 65 54 50 52
170 146 116 312 265 158 157 164 144 92 85 95 92 100 148 153 122 142 166 154 146 160 173 173 169 161 158 161 162 161 159 152 145 140 139 138 139 140 142 143 143 141 140 138 136 135 136 139 140 139 138 139 139 139 139 140 139 138 136 134 133 132 131 131 131 130 126 120 116 115 111 103 93 83 83 87 87 82 78 75 74 81 87 79 67 68 70
87 94 76 320 323 35 92 135 142 120 105 109 118 137 148 128 133 163 169 162 163 166 167 175 176 163 159 163 162 159 156 148 140 140 141 142 142 144 144 144 142 140 139 137 136 137 138 140 140 139 138 139 139 139 140 141 141 140 138 135 135 136 135 134 134 132 128 124 122 119 116 114 110 101 92 86 85 83 82 81 82 87 93 95 93 94 91
44 45 52 42 40 69 100 133 144 142 139 138 144 154 145 136 152 168 165 163 167 164 165 179 175 158 155 162 161 158 154 143 138 141 144 143 144 145 144 145 143 141 140 139 138 139 141 141 141 140 138 138 138 139 140 142 142 140 139 138 138 137 134 135 136 134 130 129 127 125 123 121 117 114 107 96 88 86 84 84 85 85 87 93 97 97 101
48 45 48 71 89 99 118 132 142 153 137 111 118 131 123 130 150 160 159 158 158 156 161 174 165 151 151 159 160 156 150 141 138 141 142 143 145 147 146 145 145 142 142 141 141 142 143 142 141 140 138 138 139 140 141 142 141 141 141 139 136 135 136 138 139 136 134 134 133 131 131 129 125 121 117 111 105 101 96 91 89 86 84 85 86 84 85
62 101 113 112 106 112 128 130 134 133 95 92 125 129 87 67 107 153 157 154 157 161 160 159 153 150 154 161 161 155 146 140 140 143 144 146 148 148 147 147 146 143 142 142 143 144 144 142 141 140 139 139 141 142 142 142 140 139 139 138 136 138 142 143 141 140 140 140 139 138 136 135 133 128 122 122 124 126 122 115 106 98 90 85 83 80 77
107 119 132 127 130 142 117 94 111 137 124 120 141 137 111 93 115 140 146 148 153 153 141 137 139 137 140 153 158 153 145 143 145 147 148 149 150 149 148 146 144 141 142 143 143 143 143 142 141 140 140 141 142 143 142 140 138 138 138 138 138 141 145 145 142 142 142 139 138 138 136 134 133 131 133 139 144 142 140 137 130 122 114 103 91 83 78
95 54 15 37 96 118 97 88 112 135 139 138 137 131 133 140 139 136 141 147 147 141 134 139 140 128 110 130 145 145 142 145 150 153 151 149 148 148 146 143 141 142 142 142 142 142 143 143 142 140 139 141 143 143 141 139 139 139 140 140 141 144 148 148 143 140 139 138 137 136 135 133 133 133 136 142 144 140 137 139 139 138 139 136 124 103 88
64 63 46 50 76 105 133 138 128 122 128 146 144 139 144 149 146 146 147 145 141 141 142 142 139 129 114 113 120 117 111 119 137 146 147 146 144 144 143 141 140 141 140 140 142 144 144 143 141 140 140 142 143 142 140 139 141 142 143 145 147 149 150 146 141 139 139 136 131 128 130 132 133 135 137 138 141 143 140 137 145 151 145 152 164 166 157
81 85 93 85 95 124 150 148 129 124 138 153 151 153 157 154 152 155 152 142 130 131 135 133 130 125 119 117 119 116 104 88 91 108 122 131 136 139 140 139 138 138 140 142 144 145 145 144 143 142 142 144 144 141 141 142 142 144 147 149 151 152 149 144 143 142 137 129 125 128 135 141 139 139 142 140 139 139 132 129 152 173 151 154 182 194 191
100 89 95 116 147 146 126 115 129 138 149 159 159 161 162 158 155 157 155 144 132 130 131 130 129 126 123 124 125 121 113 104 98 97 105 116 124 129 134 137 138 139 142 145 146 147 146 144 143 143 144 146 144 143 145 146 145 146 149 148 146 144 142 141 143 141 136 136 140 145 150 150 142 138 142 144 144 146 146 148 167 197 197 176 185 176 115
112 109 126 144 157 94 96 110 142 140 144 162 163 160 162 163 161 158 150 137 132 134 132 130 133 131 126 125 125 121 116 115 114 111 110 114 119 124 130 134 135 137 141 144 146 147 146 143 142 144 147 148 148 148 149 150 150 148 147 144 142 141 141 143 143 139 138 145 153 157 155 148 142 146 154 158 157 162 164 162 173 209 241 243 241 182 124
62 14 128 103 63 62 127 146 156 147 151 158 151 148 158 165 163 155 141 132 134 136 134 138 142 138 129 125 125 124 121 121 122 123 121 121 125 129 130 132 136 139 142 145 146 147 147 145 144 148 151 151 152 153 154 154 153 149 146 144 144 145 147 147 143 141 147 156 160 159 155 152 153 160 165 165 169 176 175 176 195 219 234 263 276 201 165
12 7 24 31 337 304 195 170 165 149 143 138 126 137 157 161 156 144 135 135 139 139 140 146 146 140 134 130 128 125 123 122 126 130 131 131 133 134 133 137 143 145 146 149 151 153 153 150 148 151 156 155 154 156 158 158 155 149 147 148 148 148 150 151 149 151 160 166 162 159 159 162 167 170 171 175 187 197 196 199 228 252 253 267 279 220 180
16 25 35 5 329 339 106 149 159 148 144 147 143 144 153 151 142 134 133 135 139 141 144 148 147 143 140 137 132 128 129 131 133 136 137 135 134 135 140 148 153 150 151 157 161 161 159 154 153 157 159 156 156 159 159 158 154 149 147 149 151 151 153 156 158 163 169 167 165 167 171 176 181 182 183 191 200 207 211 215 231 253 255 261 274 240 187
16 18 27 16 15 68 115 133 141 143 152 160 153 146 144 139 132 131 135 140 145 149 151 151 151 151 149 144 139 137 139 138 138 141 144 143 139 140 149 160 161 157 159 165 168 169 164 158 157 161 161 157 159 163 161 157 154 150 147 150 154 156 159 161 165 170 172 172 174 174 175 182 191 191 196 212 222 224 224 225 232 243 247 256 270 262 222
52 33 33 53 76 101 111 110 114 123 136 147 145 142 142 135 128 128 131 136 144 149 148 149 153 155 150 142 137 137 139 142 144 146 147 148 147 150 161 168 164 161 164 168 171 173 167 159 159 164 165 160 162 165 163 160 155 150 150 155 158 160 164 169 173 175 176 178 181 179 180 191 203 205 208 221 231 234 237 240 243 247 250 255 264 266 259
79 64 63 88 110 112 104 104 111 119 125 130 134 137 139 138 136 135 132 130 132 132 126 128 137 139 133 127 128 130 135 141 145 146 147 149 152 160 172 170 163 164 171 173 172 172 164 157 160 169 172 165 164 169 170 164 156 153 157 162 164 164 169 176 180 181 182 185 188 188 192 199 206 210 214 218 224 230 236 240 246 256 264 265 262 261 262
101 94 95 108 115 111 107 110 116 121 124 123 124 130 134 135 135 135 130 125 126 128 126 123 125 125 123 122 125 128 133 140 143 145 146 148 152 162 171 168 165 172 177 172 167 165 160 156 162 175 179 169 166 173 176 169 160 160 164 168 168 170 175 181 183 185 188 190 191 195 202 206 210 216 222 224 226 231 233 235 245 258 265 266 266 265 263
126 115 112 116 117 113 113 114 114 116 119 118 122 132 137 135 133 133 129 124 125 128 129 128 127 127 128 127 125 128 136 144 147 146 145 148 156 164 167 167 173 180 178 168 161 158 157 159 169 181 182 173 170 173 175 173 170 170 171 172 173 176 180 183 187 189 192 194 196 201 210 214 217 222 230 234 238 242 241 239 243 248 250 254 259 261 262
146 128 114 116 119 118 114 111 106 107 115 119 122 132 139 140 138 137 137 138 140 138 135 135 137 137 135 133 131 135 143 150 151 148 147 153 162 167 170 177 182 177 168 164 160 153 155 165 179 185 181 177 172 170 171 176 179 177 174 176 181 184 184 187 193 195 195 197 201 204 212 219 222 224 228 234 238 243 247 247 247 250 254 258 262 265 267
163 145 121 119 127 127 122 116 109 108 115 120 122 129 138 141 140 139 138 143 149 150 146 145 145 143 138 136 136 139 145 151 154 154 156 161 167 174 182 188 180 164 157 159 160 155 160 175 188 187 181 176 169 166 171 178 184 185 180 179 185 190 189 190 199 205 205 208 212 212 215 221 223 223 226 230 233 238 245 249 252 256 259 261 264 267 268
170 157 133 128 130 123 121 124 121 115 113 115 121 128 133 136 138 138 136 137 144 150 149 146 145 144 142 140 140 143 148 153 155 159 165 171 179 189 195 184 162 152 154 159 161 162 171 182 187 182 178 172 164 165 173 182 189 197 197 189 188 196 201 201 206 212 213 216 223 225 226 230 233 235 237 239 240 243 246 248 252 258 260 262 265 268 269
171 165 150 139 132 125 128 141 140 125 117 119 126 130 131 132 136 139 139 138 142 147 149 150 151 153 152 149 148 152 155 156 157 164 170 174 184 197 196 171 150 150 157 163 166 170 177 183 180 172 170 167 160 163 173 184 192 201 209 202 195 201 209 211 216 223 225 226 230 232 234 235 239 243 247 249 250 253 256 257 259 262 264 265 269 271 273
166 165 153 140 137 133 128 131 131 126 121 121 123 127 132 135 136 140 145 147 147 148 151 155 159 161 161 159 159 160 160 160 165 171 172 173 182 187 172 153 150 156 162 166 170 174 178 177 168 161 161 162 161 165 176 189 194 200 209 209 204 206 211 215 222 230 236 240 244 246 246 246 246 248 251 253 253 255 258 261 263 266 268 270 272 274 275
153 160 156 149 148 138 115 112 115 120 124 124 121 121 128 134 138 146 154 156 154 154 156 157 158 159 161 162 162 162 163 166 173 177 176 177 183 174 155 145 152 162 166 168 173 176 177 173 163 158 160 163 165 171 183 196 200 203 209 211 210 213 218 223 230 236 239 244 248 250 251 254 256 256 256 258 258 259 262 265 267 268 269 270 272 274 276
154 162 160 153 147 140 131 125 124 126 130 131 127 125 128 132 139 146 149 146 148 154 159 160 156 157 160 161 160 162 164 167 172 175 175 169 156 148 147 151 161 169 172 175 178 177 176 173 168 168 173 177 177 184 196 203 205 210 215 215 218 225 228 229 235 241 243 244 247 247 250 255 259 261 264 266 266 266 267 267 266 267 268 268 269 271 273
163 167 161 151 146 149 153 149 143 141 140 136 132 132 132 133 136 139 135 128 138 150 157 158 155 155 159 160 162 166 168 168 168 172 173 164 144 137 150 164 170 171 176 181 183 177 178 179 178 181 188 191 192 199 207 209 211 219 223 221 225 232 235 234 238 241 242 243 244 243 244 248 251 253 256 259 259 260 262 264 265 267 268 269 270 271 273
162 160 156 151 152 161 169 168 166 160 149 138 132 135 136 133 131 134 137 139 146 153 156 159 161 162 165 166 165 165 167 168 167 169 173 172 163 155 165 174 176 176 180 186 185 172 177 181 180 182 190 197 199 204 212 217 220 225 230 233 235 236 237 239 243 245 247 248 247 244 244 248 251 254 258 260 262 264 266 268 268 270 273 275 274 274 275
156 158 161 161 163 170 177 180 179 170 161 151 143 141 143 142 136 132 136 143 153 158 159 160 160 160 161 161 158 157 161 169 173 172 172 176 176 169 168 175 181 183 187 192 189 174 172 178 181 184 189 197 203 208 215 222 226 228 231 236 239 239 239 240 243 249 253 257 258 258 258 258 260 262 264 266 267 269 270 271 272 274 276 278 277 275 275
164 166 169 166 164 170 178 182 173 163 162 160 151 145 146 147 141 137 141 149 156 159 159 159 156 153 151 152 155 157 158 161 167 170 173 177 180 175 170 175 184 187 191 199 202 189 180 184 193 193 193 197 206 212 218 224 230 232 231 230 232 237 239 238 238 242 247 249 252 257 260 260 260 262 263 264 265 267 269 271 272 272 273 274 274 274 274
170 163 158 157 159 165 174 176 170 163 163 161 158 159 161 156 144 142 151 160 161 161 161 160 158 159 161 160 161 164 163 160 163 172 178 182 185 181 172 172 181 188 193 202 210 204 191 190 198 202 201 203 208 214 219 224 230 235 235 232 230 233 237 239 242 246 249 249 250 253 255 256 258 260 262 264 267 268 269 271 272 273 274 275 275 275 274